This is the latest recevied weather packets stored in our database for station/object W4MLN-3. If no packets are shown the sender has not sent any weather packets the latest 10 day(s).
| Time | Temp. | Humidity | Pressure | Rain* | Wind** | Luminosity | Snow |
|---|---|---|---|---|---|---|---|
| 1777594803 | 11.11° C | 52% | 1012.2 hPa | 0 mm | - | - | - |
| 1777594545 | 11.11° C | 52% | 1012.2 hPa | 0 mm | - | - | - |
| 1777594203 | 11.11° C | 51% | 1012.1 hPa | 0 mm | - | - | - |
| 1777593903 | 11.67° C | 50% | 1012.1 hPa | 0 mm | - | - | - |
| 1777593625 | 11.67° C | 51% | 1012.2 hPa | 0 mm | - | - | - |
| 1777593324 | 11.67° C | 49% | 1012.2 hPa | 0 mm | - | - | - |
| 1777593003 | 12.22° C | 48% | 1012 hPa | 0 mm | - | - | - |
| 1777592746 | 12.22° C | 47% | 1012 hPa | 0 mm | - | - | - |
| 1777592403 | 12.22° C | 47% | 1012.1 hPa | 0 mm | - | - | - |
| 1777592103 | 12.78° C | 45% | 1012 hPa | 0 mm | - | - | - |
| 1777591803 | 12.78° C | 45% | 1011.9 hPa | 0 mm | - | - | - |
| 1777591524 | 13.33° C | 43% | 1011.9 hPa | 0 mm | - | - | - |
| 1777591203 | 13.33° C | 45% | 1011.7 hPa | 0 mm | - | - | - |
| 1777590903 | 13.89° C | 42% | 1011.6 hPa | 0 mm | - | - | - |
| 1777590603 | 13.89° C | 42% | 1011.6 hPa | 0 mm | - | - | - |
| 1777590303 | 13.89° C | 43% | 1011.6 hPa | 0 mm | - | - | - |
| 1777590003 | 14.44° C | 40% | 1011.7 hPa | 0 mm | - | - | - |
| 1777589703 | 14.44° C | 39% | 1011.6 hPa | 0 mm | - | - | - |
| 1777589403 | 15° C | 38% | 1011.8 hPa | 0 mm | - | - | - |
| 1777589145 | 15° C | 37% | 1011.7 hPa | 0 mm | - | - | - |
| 1777588803 | 15.56° C | 36% | 1011.6 hPa | 0 mm | - | - | - |
| 1777588524 | 15.56° C | 36% | 1011.6 hPa | 0 mm | - | - | - |
| 1777588203 | 15.56° C | 35% | 1011.6 hPa | 0 mm | - | - | - |
| 1777587903 | 15.56° C | 37% | 1011.6 hPa | 0 mm | - | - | - |
| 1777587603 | 15.56° C | 36% | 1011.6 hPa | 0 mm | - | - | - |
* Rain latest hour (hover to see other rain measurements)
** Current wind speed in m/s (hover to see current wind gust speed)